Location: Mohawk View
(42.7837°N, 73.7885°W)
Time: 01:26:05
(UTC+00:00)

Exosat Rocket - Pass Details

Date: 17 June 2021
Orbit: 761 x 2514 km, 72.3° (Epoch: 02 August)

Event Time Altitude Azimuth Distance (km) Brightness Sun altitude
Exits shadow 06:02:21 40° 187° (S) 1,559 4.5 -22.1°
Maximum altitude 06:04:58 76° 110° (ESE) 1,030 4.0 -22.0°
Drops below altitude 10° 06:10:27 10° 26° (NNE) 2,467 7.3 -21.6°
Sets 06:12:36 0° 25° (NNE) 3,320 8.3 -21.5°
